Location: Lane
(33.5226°N, 79.8788°W)
Time: 07:21:46
(UTC+00:00)

Explorer 7 - Pass Details

Date: 09 October 2022
Orbit: 481 x 665 km, 50.3° (Epoch: 28 November)

Event Time Altitude Azimuth Distance (km) Brightness Sun altitude
Rises 14:49:21 0° 280° (W) 2,982 10.2 38.5°
Reaches altitude 10° 14:52:33 10° 301° (WNW) 2,084 9.4 39.0°
Maximum altitude 14:55:32 16° 340° (NNW) 1,711 9.1 39.4°
Drops below altitude 10° 14:58:33 10° 18° (NNE) 2,085 9.6 39.8°
Sets 15:01:45 0° 40° (NE) 2,986 10.5 40.3°
